Weather in Toshko'mir

Kyrgyzstan     41°20′39″N   72°13′10″E
temp.,
°C
wind,
m/s
gust,
m/s
humid.,
%
clouds,
%
prec.,
mm/h
press.,
hPa
HPBL,
m
12 august, fri
fri1200:00+22e222987 0.0 100912
03:00+20ene22355 0.0 100913
06:00+19ne22391 0.0 101011
09:00+26s12240 0.0 1010698
12:00+31sw32170 0.0 10081752
15:00+34wsw44140 0.0 10052493
18:00+34sw43140 0.0 10032679
21:00+25se12250 0.0 100512
13 august, sat
sat1300:00+24ene33260 0.0 100614
03:00+22ne22300 0.0 100615
06:00+21ne22320 0.0 100714
09:00+29s12200 0.0 1008670
12:00+33ssw32140 0.0 10061986
15:00+36wsw4390 0.0 10032727
18:00+37sw4380 0.0 10012759
21:00+26e21190 0.0 100311
14 august, sun
sun1400:00+26ne33200 0.0 100322
03:00+23ne22230 0.0 100315
06:00+22ne22250 0.0 100414
09:00+30sw11170 0.0 1004519
12:00+35sw32120 0.0 10021765
15:00+39sw4290 0.0 10002618
18:00+38sw53100 0.0 9982456
21:00+28e21202 0.0 100111
15 august, mon
mon1500:00+27ene33212 0.0 100216
03:00+25ene23240 0.0 100215
06:00+24ene22260 0.0 100213
09:00+31sse23160 0.0 1003674
12:00+36s54110 0.0 10011616
15:00+39sw43100 0.0 9992545
18:00+39sw5490 0.0 9982895
21:00+29ese22170 0.0 100012
16 august, tue
tue1600:00+27e33195 0.0 100116
03:00+25e332146 0.0 100123
06:00+26e332199 0.0 100247
09:00+31se561633 0.0 1003981
12:00+35sse651212 0.0 10021449
15:00+38sw56100 0.0 10003106
18:00+38sw88100 0.0 9983070
21:00+29se25170 0.0 100177